www.pogodaiklimat.ru

Погода и климат >> Архив погоды >> Россия >> Хабаровский край >> Большой Шантар


АРХИВ ПОГОДЫ в Большом Шантаре

Время (UTC), дата Ветер
(напр.,м/с)
 
Видим.   Явления Облачность Т
(С)
Тd
(С)
f
(%)
Тe
(С)
Тes
(С)
Комфортность P
(гПа)
Po
(гПа)
Тmin
(С)
Tmax
(С)
R
(мм)
R24
(мм)
S
(см)
06 17.07 ЮЗ 2 20 км в посл. час гроза 9/6 600 м
[Cb cap Ac lent]
+19.0 +15.6 81 +21 +22 комфорт 1003.1 1002.1
09 17.07 ЮЗ 1 20 км в посл. час дождь 10/6 1000 м
[Sc As op]
+15.8 +13.8 88 +16 +17 1004.2 1003.1 +20.6 0.0
12 17.07 С 2 20 км {дождь} 10/8 1000 м
[Sc As op]
+14.5 +13.1 91 +14 +14 1004.6 1003.5
15 17.07 СВ 3 20 км 10/10 1000 м
[Sc]
+17.3 +14.0 81 +17 +17 1004.5 1003.5
18 17.07 СВ 1 20 км 10/10 1000 м
[Sc]
+12.8 +11.4 91 +13 +13 1004.2 1003.1
21 17.07 СВ 1 20 км 10/10 600 м
[Sc]
+14.4 +12.9 91 +15 +15 1004.0 1002.9 +12.7
00 18.07 ЮЗ 1 20 км 10/8 1000 м
[Sc Ac As]
+15.6 +13.0 85 +16 +17 1003.6 1002.5
03 18.07 ЮЗ 3 1000 м дымка 9/4 1000 м
[Cu med, cong Ac trans Ci fib]
+14.3 +11.8 85 +13 +18 1003.3 1002.2
06 18.07 ЮЗ 2 1000 м в посл. час туман 9/3 1000 м
[Cu med, cong Ac trans Ci fib]
+14.0 +12.0 88 +13 +17 1002.2 1001.1
09 18.07 ЮЗ 1 20 км в посл. час туман 3/1 1000 м
[Sc diur, vesp Ac trans]
+16.5 +14.2 86 +17 +19 1002.4 1001.3 +18.7
12 18.07 СВ 1 20 км {туман} 3/0
[Ci fib]
+13.0 +11.8 92 +13 +13 1003.4 1002.3
15 18.07 В 1 20 км ясно +12.5 +11.4 93 +12 +12 1003.0 1001.9
18 18.07 штиль 0 500 м туман ?/? +12.0 +10.9 93 +11 +11 1003.4 1002.3
21 18.07 В 1 500 м туман ?/? +13.1 +12.0 93 +13 +13 1004.1 1003.0 +10.3
00 19.07 Ю 2 500 м туман ?/? +13.9 +12.8 93 +13 +13 1004.3 1003.2
03 19.07 ЮЗ 3 500 м туман ?/? +14.7 +13.4 92 +14 +14 1004.3 1003.3
06 19.07 ЮЗ 2 1000 м дымка {туман} 9/9 1000 м
[Sc]
+14.8 +12.6 87 +14 +15 1004.2 1003.1
09 19.07 Ю 2 20 км 9/9
[Sc]
+14.1 +12.0 87 +14 +14 1005.9 1004.8 +15.6
12 19.07 СВ 2 50 км 10/10 1000 м
[Sc]
+13.4 +11.9 91 +13 +13 1008.8 1007.7
15 19.07 СВ 1 50 км 10/10 1000 м
[Sc]
+15.5 +13.0 85 +16 +16 1010.4 1009.3
18 19.07 С 2 50 км 10/10 1000 м
[Sc]
+15.0 +13.2 89 +15 +15 1011.0 1009.9
21 19.07 СЗ 2 20 км 10/10 1000 м
[Sc]
+13.1 +11.1 88 +12 +12 1013.4 1012.4 +12.2
00 20.07 З 2 20 км 10/10 1000 м
[Sc]
+13.4 +11.2 87 +13 +13 1014.2 1013.1
03 20.07 ЮЗ 1 20 км 10/3 1000 м
[Sc Ac und]
+13.5 +11.6 88 +14 +17 1015.1 1014.0
06 20.07 С 2 50 км 10/10 1000 м
[Sc]
+17.9 +12.6 71 +18 +18 1014.2 1013.1
09 20.07 СВ 3 50 км 10/10 1000 м
[Sc]
+17.7 +10.4 62 +18 +18 1013.9 1012.9 +19.3
12 20.07 С 2 20 км слаб. дождь 10/0 600 м
[As op]
+14.6 +11.7 83 +14 +14 1015.1 1014.1
15 20.07 СВ 3 10 км слаб. дождь 10/0
[As op]
+14.6 +11.7 83 +14 +14 1015.1 1013.4
18 20.07 С 4 10 км слаб. дождь 10/0
[As op]
+12.0 +10.0 88 +10 +10 1014.4 1013.3
21 20.07 С 3 10 км слаб. дождь 10/10 300 м
[Frnb Ns]
+12.1 +10.5 90 +10 +10 1015.3 1014.2 +11.6 14
00 21.07 С 2 20 км слаб. дождь 10/10 300 м
[Frnb Ns]
+14.0 +11.9 87 +13 +13 1016.3 1015.3
03 21.07 С 3 20 км слаб. дождь 10/6 300 м
[St As op]
+16.1 +11.1 72 +16 +17 1016.7 1015.6
06 21.07 Ю 2 20 км {дождь} 10/6 600 м
[Sc diur, vesp Ac und]
+14.3 +9.9 75 +14 +15 1016.3 1015.2
09 21.07 Ю 1 50 км ?/? +10.2 +8.2 87 +10 +10 1016.6 1015.5 +17.7 3
12 21.07 СВ 1 50 км 10/0
[Ac As]
+11.4 +10.0 91 +11 +11 1016.5 1015.4
15 21.07 штиль 0 50 км 10/0
[Ac As]
+9.9 +8.4 90 +9 +9 1015.3 1014.2
18 21.07 ЮВ 1 20 км 10/0
[Ac As]
+9.6 +8.3 92 +9 +9 1014.3 1013.2
21 21.07 СВ 1 50 км 10/0
[Ac As]
+11.6 +10.1 91 +11 +12 1012.6 1011.5 +9.0
00 22.07 СЗ 1 20 км слаб. дождь 10/0
[Ac As]
+13.1 +10.4 84 +13 +17 1011.8 1010.7
03 22.07 С 2 10 км слаб. дождь 10/4 1000 м
[Sc As op]
+13.5 +10.7 83 +13 +15 1010.2 1009.1
06 22.07 С 3 20 км слаб. дождь 10/8 600 м
[Sc As op]
+12.1 +9.5 84 +10 +11 1008.3 1007.2
09 22.07 С 4 4000 м слаб. дождь 10/8 300 м
[Frnb As op]
+11.7 +10.3 91 +9 +9 1006.9 1005.8 +13.8 10
12 22.07 С 4 4000 м слаб. дождь 10/10 300 м
[Frnb Ns]
+10.6 +9.3 92 +8 +8 1006.2 1005.1
15 22.07 С 3 4000 м слаб. дождь 10/10 300 м
[Frnb Ns]
+11.2 +9.7 90 +9 +9 1004.7 1003.6
18 22.07 С 7-11
{11}
4000 м слаб. дождь 10/10 300 м
[Frnb Ns]
+12.3 +10.8 91 +9 +9 1001.6 1000.6
21 22.07 СВ 8-13
{13}
4000 м слаб. дождь 10/10 300 м
[Frnb Ns]
+13.8 +11.8 88 +11 +11 1000.1 999.0 +10.6 41
00 23.07 СВ 7-11
{16}
4000 м дождь 10/10 300 м
[Frnb Ns]
+13.9 +11.8 87 +12 +12 1000.7 999.6
03 23.07 СВ 8-13
{16}
4000 м дождь 10/10 300 м
[Frnb Ns]
+13.6 +11.3 86 +11 +11 1001.5 1000.5
06 23.07 СВ 8-15
{19}
4000 м дождь 10/10 300 м
[Frnb Ns]
+12.0 +9.7 86 +9 +9 1006.4 1005.3
09 23.07 СВ 8-13
{18}
10 км слаб. дождь 10/10 300 м
[Frnb Ns]
+11.2 +8.7 85 +8 +8 1010.7 1009.6 +14.0 25
12 23.07 СВ 6-11
{15}
20 км слаб. дождь 10/10 300 м
[Frnb Ns]
+11.1 +8.7 85 +8 +8 1013.2 1012.1
15 23.07 СВ 5
{11}
20 км {дождь} 10/10 300 м
[Frnb Ns]
+11.1 +8.4 83 +8 +8 1014.4 1013.3
18 23.07 С 4 20 км {дождь} 10/8 300 м
[St As op]
+10.5 +7.9 84 +8 +8 1015.3 1014.2
21 23.07 СВ 7-11
{11}
20 км 10/8 300 м
[St Ac und]
+11.4 +7.8 79 +8 +8 1016.4 1015.4 +10.4
00 24.07 СВ 4
{12}
20 км 9/8 600 м
[Sc diur, vesp Ci fib]
+13.6 +8.0 69 +12 +13 1017.7 1016.6
03 24.07 В 5 20 км 4/3 1000 м
[Cu med, cong Ci fib]
+15.6 +5.8 52 +15 +20 1018.1 1017.0

 

Местоположение метеостанции Большой Шантар (Хабаровский край, Россия): широта 54.83 долгота 137.50 высота над уровнем моря 9 м.

В архиве по умолчанию представлена погода в Большом Шантаре за последнюю неделю. Архивные данные за месяц целиком и за предыдущие месяцы, начиная с января 2011 года, Вы можете получить, выбрав интересующий диапазон дат из раскрывающегося списка и нажав кнопку "Ввод!".


*Определитесь, кто Вы:
робот инопланетянин человек

Внимание! Время в таблицах - всемирное. Для получения местного времени необходимо прибавить поправку, которая равна 10 ч.

Смотрите также архив погоды в соседних городах и на ближайших метеорологических станциях:

Погода в Чумикане (Хабаровский край, Россия) (142 км)
Погода в Аяне (Хабаровский край, Россия) (184 км)
Погода в Джане (Хабаровский край, Россия) (199 км)
Погода в Удском (Хабаровский край, Россия) (203 км)
Погода в Литке (Хабаровский край, Россия) (206 км)
Погода в Бурукане (Хабаровский край, Россия) (221 км)
Погода в Удинске (Хабаровский край, Россия) (229 км)
Погода в Им. Полины Осипенко (Хабаровский край, Россия) (276 км)
Погода в Николаевск-на-Амуре (Хабаровский край, Россия) (280 км)
Погода в Веселой Горке (Хабаровский край, Россия) (303 км)

Пояснения к столбцам:

Ветер - указаны скорость ветра в м/с - средняя за 10 мин, порывы в срок и между сроками (в фигурных скобках) и направление, откуда дует ветер: С - северный, СВ - северо-восточный, В - восточный, ЮВ - юго-восточный, Ю - южный, ЮЗ - юго-западный, З - западный, СЗ - северо-западный.
Видимость - горизонтальная дальность видимости в метрах или километрах. При видимости от 1 до 10 км при отсутствии осадков обычно наблюдается дымка, при ухудшении видимости до 1 км и менее - туман. В сухую погоду видимость может ухудшаться дымом, пылью или мглою.
Явления - указаны атмосферные явления, наблюдавшиеся в срок или в последний час перед сроком; фигурными скобками обозначены явления, наблюдавшиеся между сроками (за 1-3 часа до срока); квадратными скобками обозначены град или гололедные отложения с указанием их диаметра в мм.
Облачность - указаны через наклонную черту общая и нижняя облачность в баллах и высота нижней границы облаков в метрах; квадратными скобками обозначены формы облаков: Ci - перистые, Cs - перисто-слоистые, Cc - перисто-кучевые, Ac - высококучевые, As - высокослоистые, Sc - слоисто-кучевые, Ns - слоисто-дождевые, Cu - кучевые, Cb - кучево-дождевые. Подробнее классификацию облаков см. в Атласе облаков (PDF).
T - Температура воздуха - температура, измеренная на высоте 2 м над землей.
Td - Температура точки росы - температура, при понижении до которой содержащийся в воздухе водяной пар достигнет насыщения.
f - Относительная влажность воздуха - влажноcть воздуха, измеренная на высоте 2 м над землей.
Te - Эффективная температура - температура, которую ощущает одетый по сезону человек в тени. Характеристика душности погоды. При расчете учитывается влияние влажности воздуха и скорости ветра на теплоощущения человека.
Tes - Эффективная температура на солнце - температура, которую ощущает человек, с поправкой на солнечный нагрев. Характеристика знойности погоды. Зависит от высоты солнца над горизонтом, облачности и скорости ветра. Ночью, в пасмурную погоду, а также при ветре 12 м/с и более поправка равна нулю.
P - Атмосферное давление - приведенное к уровню моря атмосферное давление.
Po - Атмосферное давление - измеренное на уровне метеостанции атмосферное давление.
Tmin - Минимальная температура - минимум температуры воздуха на высоте 2 м над землей.
Tmax - Максимальная температура - максимум температуры воздуха на высоте 2 м над землей.
R - Количество осадков - Количество выпавших осадков за период времени, мм. При наведении курсора мыши на число - период времени, за который выпало указанное количество осадков.
R24 - Количество осадков - Количество выпавших осадков за 24 часа, мм.
S - Снежный покров - Высота снежного покрова, см. При наведении курсора мыши на число - состояние снежного покрова и степень покрытия местности в баллах.